Retour au catalogue

DELTA 1 DEB

ActifLEO
NORAD 7179·DEBRIS·🇺🇸 United States

Lancé Nov 6, 1973 depuis Vandenberg Space Force Base

Loading…

Prochains Passages (prochaines 24 heures)

TLE

FraisSource: Space-Track

Époque: Sep 14, 2026, 09:44 UTC

1 07179U 73086EQ  26257.40605648  .00020461  00000-0  80772-2 0  9992
2 07179 102.6051 326.7801 0036580 213.3407 208.2740 14.28716728502837

Suivez DELTA 1 DEB en temps réel avec AllMySat

Download on the App Store